Time,TemperatureF,DewpointF,PressureIn,WindDirection,WindDirectionDegrees,WindSpeedMPH,WindSpeedGustMPH,Humidity,HourlyPrecipIn,Conditions,Clouds,dailyrainin,SoftwareType,DateUTC
2013-07-30 00:02:00,77.0,60.0,29.79,North,356,0.0,0.0,55,0.00,,,0.00,,2013-07-30 06:02:00,
2013-07-30 00:12:00,77.0,60.0,29.79,North,356,0.0,0.0,55,0.00,,,0.00,,2013-07-30 06:12:00,
2013-07-30 00:22:00,76.0,61.0,29.80,North,356,0.0,0.0,60,0.00,,,0.00,,2013-07-30 06:22:00,
2013-07-30 00:32:00,75.0,61.0,29.79,North,356,0.0,0.0,61,0.00,,,0.00,,2013-07-30 06:32:00,
2013-07-30 00:43:00,75.0,61.0,29.79,North,356,0.0,0.0,61,0.00,,,0.00,,2013-07-30 06:43:00,
2013-07-30 00:53:00,74.0,61.0,29.80,North,354,0.0,0.0,64,0.00,,,0.00,,2013-07-30 06:53:00,
2013-07-30 01:02:00,74.0,59.0,29.79,North,354,0.0,1.0,60,0.00,,,0.00,,2013-07-30 07:02:00,
2013-07-30 01:13:00,74.0,59.0,29.79,North,354,0.0,1.0,60,0.00,,,0.00,,2013-07-30 07:13:00,
2013-07-30 01:23:00,75.0,60.0,29.79,North,354,0.0,0.0,59,0.00,,,0.00,,2013-07-30 07:23:00,
2013-07-30 01:33:00,74.0,60.0,29.80,North,354,0.0,0.0,61,0.00,,,0.00,,2013-07-30 07:33:00,
2013-07-30 01:43:00,74.0,60.0,29.80,North,354,0.0,0.0,61,0.00,,,0.00,,2013-07-30 07:43:00,
2013-07-30 01:53:00,73.0,59.0,29.80,North,354,0.0,0.0,62,0.00,,,0.00,,2013-07-30 07:53:00,
2013-07-30 02:03:00,73.0,59.0,29.80,North,354,0.0,0.0,61,0.00,,,0.00,,2013-07-30 08:03:00,
2013-07-30 02:12:00,73.0,59.0,29.80,North,354,0.0,0.0,61,0.00,,,0.00,,2013-07-30 08:12:00,
2013-07-30 02:23:00,73.0,58.0,29.80,North,354,0.0,0.0,60,0.00,,,0.00,,2013-07-30 08:23:00,
2013-07-30 02:33:00,73.0,58.0,29.80,North,354,0.0,0.0,59,0.00,,,0.00,,2013-07-30 08:33:00,
2013-07-30 02:43:00,73.0,58.0,29.80,North,354,0.0,0.0,59,0.00,,,0.00,,2013-07-30 08:43:00,
2013-07-30 02:53:00,73.0,57.0,29.80,North,354,0.0,0.0,58,0.00,,,0.00,,2013-07-30 08:53:00,
2013-07-30 03:03:00,72.0,57.0,29.80,North,354,0.0,0.0,60,0.00,,,0.00,,2013-07-30 09:03:00,
2013-07-30 03:13:00,72.0,57.0,29.80,North,354,0.0,0.0,60,0.00,,,0.00,,2013-07-30 09:13:00,
2013-07-30 03:23:00,72.0,58.0,29.81,North,354,0.0,0.0,61,0.00,,,0.00,,2013-07-30 09:23:00,
2013-07-30 03:33:00,72.0,58.0,29.80,North,354,0.0,0.0,61,0.00,,,0.00,,2013-07-30 09:33:00,
2013-07-30 03:43:00,72.0,58.0,29.80,North,354,0.0,0.0,61,0.00,,,0.00,,2013-07-30 09:43:00,
2013-07-30 03:53:00,72.0,58.0,29.80,North,354,0.0,0.0,62,0.00,,,0.00,,2013-07-30 09:53:00,
2013-07-30 04:02:00,72.0,59.0,29.81,North,354,0.0,0.0,63,0.00,,,0.00,,2013-07-30 10:02:00,
2013-07-30 04:12:00,72.0,59.0,29.81,North,354,0.0,0.0,63,0.00,,,0.00,,2013-07-30 10:12:00,
2013-07-30 04:22:00,72.0,59.0,29.81,North,354,0.0,0.0,63,0.00,,,0.00,,2013-07-30 10:22:00,
2013-07-30 04:32:00,72.0,59.0,29.82,North,354,0.0,0.0,63,0.00,,,0.00,,2013-07-30 10:32:00,
2013-07-30 04:43:00,72.0,59.0,29.82,North,354,0.0,0.0,63,0.00,,,0.00,,2013-07-30 10:43:00,
2013-07-30 04:52:00,72.0,59.0,29.82,North,354,0.0,0.0,64,0.00,,,0.00,,2013-07-30 10:52:00,
2013-07-30 05:02:00,71.0,59.0,29.83,North,354,0.0,0.0,66,0.00,,,0.00,,2013-07-30 11:02:00,
2013-07-30 05:11:00,71.0,59.0,29.83,North,354,0.0,0.0,66,0.00,,,0.00,,2013-07-30 11:11:00,
2013-07-30 05:22:00,71.0,60.0,29.83,North,354,0.0,0.0,68,0.00,,,0.00,,2013-07-30 11:22:00,
2013-07-30 05:33:00,70.0,59.0,29.84,North,354,0.0,0.0,69,0.00,,,0.00,,2013-07-30 11:33:00,
2013-07-30 05:43:00,70.0,59.0,29.84,North,354,0.0,0.0,69,0.00,,,0.00,,2013-07-30 11:43:00,
2013-07-30 05:53:00,70.0,60.0,29.85,North,354,0.0,0.0,71,0.00,,,0.00,,2013-07-30 11:53:00,
2013-07-30 06:12:00,70.0,60.0,29.85,North,354,0.0,0.0,70,0.00,,,0.00,,2013-07-30 12:12:00,
2013-07-30 06:22:00,70.0,60.0,29.86,North,354,0.0,0.0,70,0.00,,,0.00,,2013-07-30 12:22:00,
2013-07-30 06:33:00,70.0,60.0,29.86,North,354,0.0,0.0,70,0.00,,,0.00,,2013-07-30 12:33:00,
2013-07-30 06:42:00,70.0,60.0,29.86,North,354,0.0,0.0,70,0.00,,,0.00,,2013-07-30 12:42:00,
2013-07-30 06:53:00,69.0,60.0,29.86,North,354,0.0,0.0,73,0.00,,,0.00,,2013-07-30 12:53:00,
2013-07-30 07:02:00,68.0,59.0,29.87,North,354,0.0,0.0,74,0.00,,,0.00,,2013-07-30 13:02:00,
2013-07-30 07:12:00,68.0,59.0,29.87,North,354,0.0,0.0,74,0.00,,,0.00,,2013-07-30 13:12:00,
2013-07-30 07:22:00,69.0,61.0,29.87,North,354,0.0,0.0,75,0.00,,,0.00,,2013-07-30 13:22:00,
2013-07-30 07:32:00,70.0,61.0,29.88,North,354,0.0,0.0,74,0.00,,,0.00,,2013-07-30 13:32:00,
2013-07-30 07:42:00,70.0,61.0,29.88,North,354,0.0,0.0,74,0.00,,,0.00,,2013-07-30 13:42:00,
2013-07-30 07:52:00,71.0,62.0,29.88,North,354,0.0,0.0,72,0.00,,,0.00,,2013-07-30 13:52:00,
2013-07-30 08:02:00,73.0,62.0,29.88,North,354,0.0,1.0,69,0.00,,,0.00,,2013-07-30 14:02:00,
2013-07-30 08:12:00,73.0,62.0,29.88,North,354,0.0,1.0,69,0.00,,,0.00,,2013-07-30 14:12:00,
2013-07-30 08:22:00,73.0,62.0,29.88,North,354,0.0,1.0,68,0.00,,,0.00,,2013-07-30 14:22:00,
2013-07-30 08:33:00,75.0,61.0,29.89,North,354,0.0,1.0,61,0.00,,,0.00,,2013-07-30 14:33:00,
2013-07-30 08:43:00,75.0,61.0,29.89,North,354,0.0,1.0,61,0.00,,,0.00,,2013-07-30 14:43:00,
2013-07-30 08:53:00,77.0,62.0,29.89,North,354,0.0,1.0,59,0.00,,,0.00,,2013-07-30 14:53:00,
2013-07-30 09:02:00,78.0,62.0,29.89,North,354,0.0,1.0,58,0.00,,,0.00,,2013-07-30 15:02:00,
2013-07-30 09:12:00,78.0,62.0,29.89,North,354,0.0,1.0,58,0.00,,,0.00,,2013-07-30 15:12:00,
2013-07-30 09:23:00,78.0,62.0,29.89,North,354,0.0,1.0,57,0.00,,,0.00,,2013-07-30 15:23:00,
2013-07-30 09:33:00,80.0,62.0,29.89,North,354,0.0,1.0,54,0.00,,,0.00,,2013-07-30 15:33:00,
2013-07-30 09:43:00,80.0,62.0,29.89,North,354,0.0,1.0,54,0.00,,,0.00,,2013-07-30 15:43:00,
2013-07-30 09:53:00,81.0,62.0,29.89,North,354,0.0,2.0,52,0.00,,,0.00,,2013-07-30 15:53:00,
2013-07-30 10:02:00,81.0,61.0,29.89,North,354,0.0,3.0,51,0.00,,,0.00,,2013-07-30 16:02:00,
2013-07-30 10:12:00,81.0,61.0,29.89,North,354,0.0,3.0,51,0.00,,,0.00,,2013-07-30 16:12:00,
2013-07-30 10:22:00,83.0,62.0,29.89,North,354,0.0,1.0,49,0.00,,,0.00,,2013-07-30 16:22:00,
2013-07-30 10:33:00,84.0,62.0,29.89,NW,326,1.0,5.0,47,0.00,,,0.00,,2013-07-30 16:33:00,
2013-07-30 10:43:00,84.0,62.0,29.89,NW,326,1.0,5.0,47,0.00,,,0.00,,2013-07-30 16:43:00,
2013-07-30 10:52:00,85.0,62.0,29.88,WNW,295,1.0,5.0,47,0.00,,,0.00,,2013-07-30 16:52:00,
2013-07-30 11:02:00,86.0,62.0,29.88,WNW,289,0.0,3.0,44,0.00,,,0.00,,2013-07-30 17:02:00,
2013-07-30 11:12:00,86.0,62.0,29.88,WNW,289,0.0,3.0,44,0.00,,,0.00,,2013-07-30 17:12:00,
2013-07-30 11:22:00,87.0,62.0,29.88,West,269,0.0,6.0,43,0.00,,,0.00,,2013-07-30 17:22:00,
2013-07-30 11:32:00,88.0,61.0,29.88,West,259,0.0,5.0,40,0.00,,,0.00,,2013-07-30 17:32:00,
2013-07-30 11:43:00,88.0,61.0,29.88,West,259,0.0,5.0,40,0.00,,,0.00,,2013-07-30 17:43:00,
2013-07-30 11:53:00,89.0,62.0,29.88,WSW,250,0.0,5.0,41,0.00,,,0.00,,2013-07-30 17:53:00,
2013-07-30 12:03:00,90.0,62.0,29.87,WSW,244,0.0,5.0,40,0.00,,,0.00,,2013-07-30 18:03:00,
2013-07-30 12:12:00,90.0,62.0,29.87,WSW,244,0.0,5.0,40,0.00,,,0.00,,2013-07-30 18:12:00,
2013-07-30 12:23:00,91.0,61.0,29.87,SW,228,1.0,4.0,37,0.00,,,0.00,,2013-07-30 18:23:00,
2013-07-30 12:32:00,92.0,62.0,29.86,SW,228,0.0,6.0,37,0.00,,,0.00,,2013-07-30 18:32:00,
2013-07-30 12:43:00,92.0,62.0,29.86,SW,228,0.0,6.0,37,0.00,,,0.00,,2013-07-30 18:43:00,
2013-07-30 12:52:00,93.0,62.0,29.85,SSW,213,0.0,7.0,36,0.00,,,0.00,,2013-07-30 18:52:00,
2013-07-30 13:12:00,93.0,61.0,29.85,SW,217,1.0,6.0,35,0.00,,,0.00,,2013-07-30 19:12:00,
2013-07-30 13:22:00,93.0,61.0,29.84,SW,216,1.0,7.0,35,0.00,,,0.00,,2013-07-30 19:22:00,
2013-07-30 13:33:00,94.0,63.0,29.84,SW,229,3.0,9.0,36,0.00,,,0.00,,2013-07-30 19:33:00,
2013-07-30 13:44:00,94.0,63.0,29.84,SW,229,3.0,9.0,36,0.00,,,0.00,,2013-07-30 19:44:00,
2013-07-30 13:52:00,94.0,62.0,29.83,SW,222,1.0,10.0,35,0.00,,,0.00,,2013-07-30 19:52:00,
2013-07-30 14:02:00,95.0,61.0,29.83,SW,235,1.0,8.0,33,0.00,,,0.00,,2013-07-30 20:02:00,
2013-07-30 14:12:00,95.0,61.0,29.83,SW,235,1.0,8.0,33,0.00,,,0.00,,2013-07-30 20:12:00,
2013-07-30 14:22:00,96.0,60.0,29.82,SSW,213,0.0,6.0,31,0.00,,,0.00,,2013-07-30 20:22:00,
2013-07-30 14:32:00,97.0,60.0,29.82,SW,223,1.0,7.0,30,0.00,,,0.00,,2013-07-30 20:32:00,
2013-07-30 14:43:00,97.0,60.0,29.82,SW,223,1.0,7.0,30,0.00,,,0.00,,2013-07-30 20:43:00,
2013-07-30 14:52:00,97.0,58.0,29.81,SW,219,0.0,7.0,28,0.00,,,0.00,,2013-07-30 20:52:00,
2013-07-30 15:02:00,97.0,61.0,29.80,SW,231,2.0,9.0,31,0.00,,,0.00,,2013-07-30 21:02:00,
2013-07-30 15:12:00,97.0,61.0,29.80,SW,231,2.0,9.0,31,0.00,,,0.00,,2013-07-30 21:12:00,
2013-07-30 15:22:00,97.0,61.0,29.80,WSW,248,1.0,8.0,31,0.00,,,0.00,,2013-07-30 21:22:00,
2013-07-30 15:32:00,98.0,59.0,29.79,SW,232,0.0,9.0,28,0.00,,,0.00,,2013-07-30 21:32:00,
2013-07-30 15:42:00,98.0,59.0,29.79,SW,232,0.0,9.0,28,0.00,,,0.00,,2013-07-30 21:42:00,
2013-07-30 15:53:00,99.0,58.0,29.79,ESE,117,5.0,17.0,26,0.00,,,0.00,,2013-07-30 21:53:00,
2013-07-30 16:02:00,98.0,54.0,29.79,SE,124,8.0,19.0,23,0.00,,,0.00,,2013-07-30 22:02:00,
2013-07-30 16:12:00,98.0,54.0,29.79,SE,124,8.0,19.0,23,0.00,,,0.00,,2013-07-30 22:12:00,
2013-07-30 16:22:00,97.0,55.0,29.80,ENE,70,3.0,12.0,25,0.00,,,0.00,,2013-07-30 22:22:00,
2013-07-30 16:32:00,95.0,56.0,29.79,East,91,1.0,9.0,27,0.00,,,0.00,,2013-07-30 22:32:00,
2013-07-30 16:43:00,95.0,56.0,29.79,East,91,1.0,9.0,27,0.00,,,0.00,,2013-07-30 22:43:00,
2013-07-30 16:53:00,99.0,53.0,29.79,SE,145,2.0,10.0,22,0.00,,,0.00,,2013-07-30 22:53:00,
2013-07-30 17:02:00,97.0,53.0,29.78,ENE,70,2.0,15.0,23,0.00,,,0.00,,2013-07-30 23:02:00,
2013-07-30 17:12:00,97.0,53.0,29.78,ENE,70,2.0,15.0,23,0.00,,,0.00,,2013-07-30 23:12:00,
2013-07-30 17:22:00,96.0,51.0,29.78,East,97,1.0,7.0,22,0.00,,,0.00,,2013-07-30 23:22:00,
2013-07-30 17:32:00,93.0,51.0,29.77,ENE,70,3.0,14.0,24,0.00,,,0.00,,2013-07-30 23:32:00,
2013-07-30 17:42:00,93.0,51.0,29.77,ENE,70,3.0,14.0,24,0.00,,,0.00,,2013-07-30 23:42:00,
2013-07-30 17:53:00,93.0,52.0,29.78,East,86,2.0,9.0,25,0.00,,,0.00,,2013-07-30 23:53:00,
2013-07-30 18:02:00,93.0,52.0,29.78,East,87,0.0,4.0,25,0.00,,,0.00,,2013-07-31 00:02:00,
2013-07-30 18:12:00,93.0,52.0,29.78,East,87,0.0,4.0,25,0.00,,,0.00,,2013-07-31 00:12:00,
2013-07-30 18:22:00,93.0,55.0,29.78,ESE,118,0.0,6.0,28,0.00,,,0.00,,2013-07-31 00:22:00,
2013-07-30 18:32:00,92.0,57.0,29.79,ESE,117,1.0,9.0,31,0.00,,,0.00,,2013-07-31 00:32:00,
2013-07-30 18:43:00,92.0,57.0,29.79,ESE,117,1.0,9.0,31,0.00,,,0.00,,2013-07-31 00:43:00,
2013-07-30 18:53:00,92.0,58.0,29.80,South,178,4.0,13.0,32,0.00,,,0.00,,2013-07-31 00:53:00,
2013-07-30 19:02:00,92.0,58.0,29.80,South,178,4.0,13.0,32,0.00,,,0.00,,2013-07-31 01:02:00,
2013-07-30 19:12:00,90.0,57.0,29.81,SSE,162,2.0,8.0,33,0.00,,,0.00,,2013-07-31 01:12:00,
2013-07-30 19:22:00,90.0,57.0,29.83,South,189,0.0,5.0,33,0.00,,,0.00,,2013-07-31 01:22:00,
2013-07-30 19:32:00,90.0,57.0,29.83,South,189,0.0,5.0,33,0.00,,,0.00,,2013-07-31 01:32:00,
2013-07-30 19:42:00,90.0,58.0,29.83,South,176,0.0,1.0,34,0.00,,,0.00,,2013-07-31 01:42:00,
2013-07-30 19:52:00,90.0,58.0,29.83,South,176,0.0,1.0,34,0.00,,,0.00,,2013-07-31 01:52:00,
2013-07-30 20:02:00,89.0,57.0,29.83,ENE,65,0.0,1.0,34,0.00,,,0.00,,2013-07-31 02:02:00,
2013-07-30 20:12:00,88.0,58.0,29.83,ENE,65,0.0,1.0,37,0.00,,,0.00,,2013-07-31 02:12:00,
2013-07-30 20:22:00,88.0,58.0,29.83,ENE,65,0.0,1.0,37,0.00,,,0.00,,2013-07-31 02:22:00,
2013-07-30 20:32:00,88.0,58.0,29.83,ENE,65,0.0,1.0,37,0.00,,,0.00,,2013-07-31 02:32:00,
2013-07-30 20:42:00,88.0,58.0,29.83,ENE,65,0.0,1.0,37,0.00,,,0.00,,2013-07-31 02:42:00,
2013-07-30 20:52:00,85.0,60.0,29.83,East,83,0.0,1.0,43,0.00,,,0.00,,2013-07-31 02:52:00,
2013-07-30 21:02:00,84.0,60.0,29.83,East,83,0.0,0.0,44,0.00,,,0.00,,2013-07-31 03:02:00,
2013-07-30 21:12:00,84.0,60.0,29.83,East,83,0.0,0.0,44,0.00,,,0.00,,2013-07-31 03:12:00,
2013-07-30 21:22:00,83.0,59.0,29.84,East,83,0.0,0.0,44,0.00,,,0.00,,2013-07-31 03:22:00,
2013-07-30 21:32:00,83.0,59.0,29.84,East,83,0.0,0.0,44,0.00,,,0.00,,2013-07-31 03:32:00,
2013-07-30 21:42:00,83.0,60.0,29.84,East,83,0.0,1.0,46,0.00,,,0.00,,2013-07-31 03:42:00,
2013-07-30 21:51:00,82.0,59.0,29.85,East,83,0.0,1.0,45,0.00,,,0.00,,2013-07-31 03:51:00,
2013-07-30 21:52:00,83.0,60.0,29.85,East,83,0.0,0.0,46,0.00,,,0.00,,2013-07-31 03:52:00,
2013-07-30 22:02:00,83.0,60.0,29.85,East,83,0.0,0.0,46,0.00,,,0.00,,2013-07-31 04:02:00,
2013-07-30 22:12:00,82.0,59.0,29.85,East,83,0.0,1.0,45,0.00,,,0.00,,2013-07-31 04:12:00,
2013-07-30 22:22:00,82.0,59.0,29.85,East,83,0.0,1.0,45,0.00,,,0.00,,2013-07-31 04:22:00,
2013-07-30 22:32:00,82.0,59.0,29.85,East,83,0.0,1.0,45,0.00,,,0.00,,2013-07-31 04:32:00,
2013-07-30 22:42:00,82.0,59.0,29.85,East,83,0.0,1.0,45,0.00,,,0.00,,2013-07-31 04:42:00,
2013-07-30 23:11:00,82.0,57.0,29.86,WNW,302,1.0,6.0,43,0.00,,,0.00,,2013-07-31 05:11:00,
2013-07-30 23:22:00,82.0,57.0,29.85,WNW,300,0.0,2.0,43,0.00,,,0.00,,2013-07-31 05:22:00,
2013-07-30 23:32:00,82.0,57.0,29.85,WNW,301,0.0,1.0,42,0.00,,,0.00,,2013-07-31 05:32:00,
2013-07-30 23:42:00,82.0,57.0,29.85,WNW,301,0.0,1.0,42,0.00,,,0.00,,2013-07-31 05:42:00,
2013-07-30 23:52:00,81.0,57.0,29.86,WNW,301,0.0,0.0,44,0.00,,,0.00,,2013-07-31 05:52:00,